Kansai International Airport

Airport
ICAO code: 
RJBB
IATA Code: 
KIX
Summary
ICAO Region: 
APAC
Territory: 
Location: 
Osaka Bay, Osaka Prefecture
Serving: 
Greater Osaka area
Elevation: 
17 ft
Coordinates: 
Aerial View: 
34° 25' 50.163" N, 135° 13' 48.918" E
Metar
Observation
RJBB 260530Z 22007KT 9999 FEW025 10/04 Q1018 NOSIG
Station
Kansai International Airport
Date/Time
2022-01-26 05:30:00
Wind direction
220°
Wind speed
07 kts
Lowest cloud amount
few clouds
Temperature
10°C
Dew point
4°C
Humidity
66%
QNH
1018 hPa
Weather condition
n/a

Kansai International Airport is an international airport located on an artificial island in the middle of Osaka Bay, 38 km southwest of Ōsaka Station, off the shore of the cities of Sennan and Izumisano and the town of Tajiri in Osaka Prefecture, Japan. It should not be confused with Osaka International Airport, which is closer to the city and now handles only domestic flights.

Climatology

Humid subtropical climate (Köppen climate classification Cfa).

Runways

Designator Length Width Surface Rops
6/24 3500 61 ASP Yes/Yes
Airport map: 
Aerial View: 

Accidents and Serious Incidents at or in the vicinity of RJBB

SKYbrary Partners:

Safety knowledge contributed by: